User: anonymous   Login
Location: Cow Canyon Saddle
(34.2291°N, 117.6698°W)
Time: 12:06:37
(UTC-07:00)
Language:

Lacrosse 5 - Orbit

View from above orbital plane
View from above orbital plane
View from above satellite
View from above satellite

Ground track
Ground track

The orbit data is extracted from the following two-line orbital elements,

1 28646U 05016A   17142.04020612 0.00000000  00000-0  00000-0 0    01
2 28646  57.0130 223.9407 0004000 133.1774 226.8226 14.51754532    06
Epoch (UTC): 22 May 2017 00:57:53
Eccentricity: 0.0004000
inclination: 57.0130°
perigee height: 717 km
apogee height: 723 km
right ascension of ascending node: 223.9407°
argument of perigee: 133.1774°
revolutions per day: 14.51754532
mean anomaly at epoch: 226.8226°
orbit number at epoch: 0

The dashed part of the orbit path shows where the satellite is in the earth's shadow,  

DLR